Saginaw, MI

10:17 AM EDT on July 23, 2017 (GMT -0400)
MBS International

Weather History for KMBS - November, 2012

Change the Weather History Date:

Sunday, November 11, 2012

  Actual Average Record
Temperature  
Mean Temperature 62 °F 40 °F  
Max Temperature 70 °F 48 °F 70 °F (2012)
Min Temperature 55 °F 33 °F 23 °F (1997)
Degree Days  
Heating Degree Days 2    
Month to date heating degree days  
Since 1 July heating degree days  
Cooling Degree Days 0    
Month to date cooling degree days  
Year to date cooling degree days  
Growing Degree Days 12 (Base 50)    
Moisture  
Dew Point 45 °F    
Average Humidity 52    
Maximum Humidity 64    
Minimum Humidity 38    
Precipitation  
Precipitation 0.00 in 0.09 in 0.17 in (2006)
Month to date precipitation 1.01  
Year to date precipitation 27.99  
Snow  
Snow 0.00 in - - ()
Month to date snowfall  
Since 1 July snowfall  
Since 1 September snowfall  
Snow Depth -    
Sea Level Pressure  
Sea Level Pressure 29.96 in    
Wind  
Wind Speed 15 mph (South)    
Max Wind Speed 25 mph    
Max Gust Speed 38 mph    
Visibility 10 miles    
Events      
T = Trace of Precipitation, MM = Missing Value Source: NWS Daily Summary

Daily Weather History Graph

Daily Weather History Graph

Search for Another Location

Airport or City:

Trip Planner

Search our weather history database for the weather conditions in past years. The results will help you decide how hot, cold, wet, or windy it might be!

Date:

Astronomy

Nov. 11, 2012 Rise Set
Actual Time 7:25 AM EST 5:14 PM EST
Civil Twilight 6:54 AM EST 5:45 PM EST
Nautical Twilight 6:20 AM EST 6:19 PM EST
Astronomical Twilight 5:46 AM EST 6:53 PM EST
Moon 4:34 AM EST (11/11) 3:40 PM EST (11/11)
Length of Visible Light 10h 50m
Length of Day
9h 49m
Waning Crescent, 7% of the Moon is Illuminated
Nov 11
Waning Crescent
Nov 13
New
Nov 20
First Quarter
Nov 28
Full
Dec 6
Last Quarter

Hourly Weather History & Observations

Time (EST) Temp. Dew Point Humidity Pressure Visibility Wind Dir Wind Speed Gust Speed Precip Events Conditions
12:53 AM 59.0 °F 46.0 °F 62% 29.97 in 10.0 mi SSW 10.4 mph - N/A   Clear
1:53 AM 62.1 °F 45.0 °F 53% 29.98 in 10.0 mi SSW 12.7 mph - N/A   Clear
2:53 AM 61.0 °F 45.0 °F 56% 29.99 in 10.0 mi SSW 12.7 mph - N/A   Clear
3:53 AM 62.1 °F 45.0 °F 53% 29.99 in 10.0 mi SSW 12.7 mph - N/A   Clear
4:53 AM 61.0 °F 45.0 °F 56% 30.02 in 10.0 mi SSW 15.0 mph - N/A   Clear
5:53 AM 61.0 °F 44.1 °F 54% 30.03 in 10.0 mi SSW 16.1 mph 24.2 mph N/A   Clear
6:53 AM 57.0 °F 45.0 °F 64% 30.04 in 10.0 mi South 10.4 mph - N/A   Clear
7:53 AM 55.9 °F 44.1 °F 64% 30.04 in 10.0 mi South 11.5 mph - N/A   Clear
8:53 AM 59.0 °F 44.1 °F 58% 30.05 in 10.0 mi South 11.5 mph - N/A   Clear
9:53 AM 63.0 °F 45.0 °F 52% 30.03 in 10.0 mi South 16.1 mph 21.9 mph N/A   Clear
10:53 AM 62.6 °F 46.4 °F 55% 30.01 in 10.0 mi South 18.4 mph 25.3 mph N/A   Clear
11:53 AM 66.9 °F 46.9 °F 49% 30.00 in 10.0 mi South 16.1 mph 23.0 mph N/A   Clear
12:53 PM 68.0 °F 48.0 °F 49% 29.96 in 10.0 mi South 21.9 mph 26.5 mph N/A   Clear
1:53 PM 68.0 °F 48.0 °F 49% 29.95 in 10.0 mi South 21.9 mph 28.8 mph N/A   Clear
2:53 PM 70.0 °F 48.9 °F 47% 29.92 in 10.0 mi South 23.0 mph 28.8 mph N/A   Clear
3:53 PM 68.0 °F 48.0 °F 49% 29.92 in 10.0 mi South 21.9 mph 33.4 mph N/A   Clear
4:53 PM 66.9 °F 46.9 °F 49% 29.91 in 10.0 mi South 17.3 mph 31.1 mph N/A   Clear
5:53 PM 64.0 °F 46.9 °F 54% 29.91 in 10.0 mi South 17.3 mph 38.0 mph N/A   Clear
6:53 PM 63.0 °F 43.0 °F 48% 29.90 in 10.0 mi South 19.6 mph 31.1 mph N/A   Clear
7:53 PM 62.6 °F 42.8 °F 48% 29.90 in 10.0 mi South 25.3 mph 34.5 mph N/A   Clear
8:53 PM 62.1 °F 43.0 °F 50% 29.90 in 10.0 mi South 16.1 mph 29.9 mph N/A   Clear
9:53 PM 63.0 °F 39.0 °F 41% 29.90 in 10.0 mi South 20.7 mph 32.2 mph N/A   Overcast
10:53 PM 63.0 °F 37.9 °F 40% 29.89 in 10.0 mi South 20.7 mph 32.2 mph 0.00 in   Overcast
11:53 PM 63.0 °F 37.0 °F 38% 29.87 in 10.0 mi South 20.7 mph 28.8 mph N/A   Overcast